This is the latest recevied weather packets stored in our database for station/object F4GSP-4. If no packets are shown the sender has not sent any weather packets the latest 10 day(s).
| Time | Temp. | Humidity | Pressure | Rain* | Wind** | Luminosity | Snow |
|---|---|---|---|---|---|---|---|
| 1777838832 | 12.22° C | 41% | 1028 hPa | - | - | - | - |
| 1777837932 | 12.22° C | 41% | 1027.9 hPa | - | - | - | - |
| 1777837032 | 12.22° C | 41% | 1027.8 hPa | - | - | - | - |
| 1777836132 | 12.22° C | 40% | 1027.6 hPa | - | - | - | - |
| 1777835231 | 12.78° C | 40% | 1027.5 hPa | - | - | - | - |
| 1777834331 | 12.78° C | 40% | 1027.3 hPa | - | - | - | - |
| 1777833431 | 13.33° C | 40% | 1027.2 hPa | - | - | - | - |
| 1777832531 | 13.89° C | 40% | 1027.1 hPa | - | - | - | - |
| 1777831631 | 13.89° C | 39% | 1027.1 hPa | - | - | - | - |
| 1777830730 | 14.44° C | 39% | 1027 hPa | - | - | - | - |
| 1777829830 | 15° C | 39% | 1027 hPa | - | - | - | - |
| 1777828930 | 15.56° C | 39% | 1027.1 hPa | - | - | - | - |
| 1777828030 | 16.67° C | 39% | 1026.9 hPa | - | - | - | - |
| 1777827130 | 16.67° C | 39% | 1026.9 hPa | - | - | - | - |
| 1777826230 | 16.67° C | 39% | 1027.1 hPa | - | - | - | - |
| 1777825330 | 17.22° C | 39% | 1027.2 hPa | - | - | - | - |
| 1777824429 | 16.67° C | 39% | 1027.2 hPa | - | - | - | - |
| 1777823529 | 16.67° C | 39% | 1027.3 hPa | - | - | - | - |
| 1777822629 | 16.11° C | 39% | 1027.4 hPa | - | - | - | - |
| 1777821729 | 16.67° C | 38% | 1027.5 hPa | - | - | - | - |
| 1777820829 | 16.67° C | 39% | 1027.6 hPa | - | - | - | - |
| 1777819929 | 16.11° C | 38% | 1027.8 hPa | - | - | - | - |
| 1777819028 | 16.11° C | 38% | 1028 hPa | - | - | - | - |
| 1777818128 | 16.67° C | 38% | 1028.1 hPa | - | - | - | - |
| 1777817228 | 18.33° C | 38% | 1028.1 hPa | - | - | - | - |
* Rain since midnight (hover to see other rain measurements)
** Current wind speed in m/s (hover to see current wind gust speed)